Location: Deuil
(48.9767°N, 2.3272°E)
Time: 11:07:33
(UTC+00:00)

H-2A R/B - Pass Details

Date: 24 October 2021
Orbit: 528 x 651 km, 98.3° (Epoch: 30 November)

Event Time Altitude Azimuth Distance (km) Brightness Sun altitude
Rises 18:18:24 0° 162° (SSE) 2,883 5.8 -16.2°
Reaches altitude 10° 18:20:37 10° 162° (SSE) 1,964 4.9 -16.5°
Maximum altitude 18:24:53 85° 78° (ENE) 604 2.4 -17.2°
Drops below altitude 10° 18:29:01 10° 347° (NNW) 1,904 5.2 -17.9°
Sets 18:31:08 0° 347° (NNW) 2,787 6.1 -18.3°
